Regional Weather Roundup
Issued by NWS

Home | Current Version | Previous Version | Graphics & Text | Print | Product List | Glossary On
Versions: 1 2 3 4 5 6 7 8 9 10 11 12 13 14 15 16 17 18 19 20 21 22 23 24 25 26 27 28 29 30 31 32 33 34 35 36 37 38 39 40 41 42 43 44 45 46 47 48 49 50
000
ASUS43 KLMK 282210
RWRKY
KENTUCKY REGIONAL WEATHER ROUNDUP
NATIONAL WEATHER SERVICE LOUISVILLE KY
600 PM EDT THU JUL 28 2016

NOTE "FAIR" INDICATES FEW OR NO CLOUDS BELOW 12,000 FEET
WITH NO SIGNIFICANT WEATHER AND/OR OBSTRUCTIONS TO VISIBILITY.

KYZ001>023-026-027-061>063-070>075-282300-
WESTERN AND SOUTH CENTRAL KENTUCKY

CITY           SKY/WX    TMP DP  RH WIND       PRES   REMARKS
PADUCAH        MOSUNNY   87  74  64 SW8       29.86S HX  95
HENDERSON      MOSUNNY   88  73  62 W3        29.84S HX  96
OWENSBORO      PTSUNNY   87  75  67 VRB3      29.87S HX  96
HOPKINSVILLE   MOSUNNY   85  74  69 SW6       29.88  HX  92
BOWLING GREEN  CLOUDY    84  70  62 CALM      29.89S
GLASGOW        SUNNY     80  69  68 CALM      29.90F
$$

KYZ024-025-028>034-038-045-046-053-282300-
NORTH CENTRAL KENTUCKY

CITY           SKY/WX    TMP DP  RH WIND       PRES   REMARKS
LOUISVILLE/SDF PTSUNNY   85  68  56 SW6       29.86R
LOUISVILLE/LOU SUNNY     84  70  62 W5        29.87R
FORT KNOX      MOSUNNY   82  73  73 NW3       29.88R
$$

KYZ035>037-039>044-047>052-055>060-089>105-282300-
NORTHEAST KENTUCKY

CITY           SKY/WX    TMP DP  RH WIND       PRES   REMARKS
LEXINGTON      PTSUNNY   79  71  76 SW6       29.91R
COVINGTON      MOSUNNY   81  70  69 CALM      29.88R
FRANKFORT      CLOUDY    82  72  71 SW5       29.88R
$$

KYZ054-064>069-076>088-106>120-282300-
SOUTHEAST KENTUCKY

CITY           SKY/WX    TMP DP  RH WIND       PRES   REMARKS
JACKSON        LGT RAIN  73  70  90 CALM      29.93R
LONDON         HVY RAIN  71  68  90 CALM      29.93R FOG
SOMERSET       CLOUDY    72  72 100 CALM      29.93R
MIDDLESBORO    TSTM      72  72  99 CALM      29.94R
MONTICELLO     CLOUDY   N/A N/A N/A VRB7      29.94R
$$





USA.gov is the U.S. government's official web portal to all federal, state and local government web resources and services.